FW0014 Weather Reports


time (UTC)temp
C
wind
direction
speed
KPH
gust
KPH
rain 1hr
cm
rain 24hr
cm
rain mn
cm
humidity
%
barometer
mb
20260504215329 27 225 0.0 0.0 0.00 0.00 0.00 59 1010.3
20260504215037 26 204 0.0 0.0 0.00 0.00 0.00 60 1008.7
20260504214825 27 172 0.0 0.0 0.00 0.00 0.00 60 1010.3
20260504214528 26 218 0.0 0.0 0.00 0.00 0.00 59 1008.7
20260504214319 27 151 0.0 0.0 0.00 0.00 0.00 60 1010.4
20260504214020 26 228 0.0 0.0 0.00 0.00 0.00 59 1008.8
20260504213836 27 193 0.0 0.0 0.00 0.00 0.00 60 1010.5
20260504213543 26 186 0.0 0.0 0.00 0.00 0.00 60 1009.0
20260504213332 27 185 0.0 0.0 0.00 0.00 0.00 61 1010.5
20260504213041 26 191 0.0 0.0 0.00 0.00 0.00 60 1008.9
20260504212827 27 221 0.0 0.0 0.00 0.00 0.00 61 1010.7
20260504212530 26 195 0.0 0.0 0.00 0.00 0.00 62 1009.0
20260504212325 27 211 0.0 0.0 0.00 0.00 0.00 60 1010.7
20260504212021 26 156 0.0 0.0 0.00 0.00 0.00 61 1009.0
20260504211840 26 158 0.0 0.0 0.00 0.00 0.00 61 1010.7
20260504211547 26 158 0.0 0.0 0.00 0.00 0.00 61 1008.9
20260504211353 26 206 0.0 0.0 0.00 0.00 0.00 60 1010.6
20260504211007 26 195 0.0 0.0 0.00 0.00 0.00 60 1009.1
20260504210830 27 181 0.0 0.0 0.00 0.00 0.00 60 1010.8
20260504210603 26 180 0.0 0.0 0.00 0.00 0.00 61 1009.3
20260504210327 27 162 0.0 0.0 0.00 0.00 0.00 61 1011.0
20260504210052 26 194 0.0 0.0 0.00 0.00 0.00 63 1009.3
20260504205821 26 214 0.0 0.0 0.00 0.00 0.00 63 1011.0
20260504205544 26 214 0.0 0.0 0.00 0.00 0.00 61 1009.6
20260504205318 26 228 0.0 0.0 0.00 0.00 0.00 62 1011.2
20260504205035 26 197 0.0 0.0 0.00 0.00 0.00 62 1009.7
20260504204850 26 218 0.0 0.0 0.00 0.00 0.00 62 1011.3
20260504204502 26 175 0.0 0.0 0.00 0.00 0.00 62 1009.9
20260504204325 26 197 0.0 0.0 0.00 0.00 0.00 62 1011.6
20260504204058 26 201 0.0 0.0 0.00 0.00 0.00 62 1010.0
20260504203822 26 194 0.0 0.0 0.00 0.00 0.00 63 1011.7
20260504203550 26 215 0.0 0.0 0.00 0.00 0.00 62 1010.1
20260504203338 26 212 0.0 0.0 0.00 0.00 0.00 63 1011.8
20260504203018 26 216 0.0 0.0 0.00 0.00 0.00 63 1010.2
20260504202814 26 157 0.0 0.0 0.00 0.00 0.00 62 1011.9
20260504202602 26 173 0.0 0.0 0.00 0.00 0.00 62 1010.5
20260504202329 26 228 0.0 0.0 0.00 0.00 0.00 64 1012.0
20260504202055 26 224 0.0 0.0 0.00 0.00 0.00 63 1010.5
20260504201846 26 164 0.0 0.0 0.00 0.00 0.00 63 1012.1
20260504201527 25 177 0.0 0.0 0.00 0.00 0.00 63 1010.6
20260504201322 26 226 0.0 0.0 0.00 0.00 0.00 64 1012.3
20260504201008 25 175 0.0 0.0 0.00 0.00 0.00 64 1010.7
20260504200818 26 164 0.0 0.0 0.00 0.00 0.00 64 1012.2
20260504200559 25 222 0.0 0.0 0.00 0.00 0.00 64 1010.8
20260504200315 25 214 0.0 0.0 0.00 0.00 0.00 63 1012.4
20260504200054 25 214 0.0 0.0 0.00 0.00 0.00 65 1010.8
20260504195830 25 214 0.0 0.0 0.00 0.00 0.00 64 1012.3
20260504195545 25 198 0.0 0.0 0.00 0.00 0.00 64 1010.8
20260504195326 25 222 0.0 0.0 0.00 0.00 0.00 63 1012.4
20260504195037 25 230 0.0 0.0 0.00 0.00 0.00 64 1010.9
20260504194842 25 223 0.0 0.0 0.00 0.00 0.00 64 1012.6
20260504194606 25 219 0.0 0.0 0.00 0.00 0.00 65 1011.2
20260504194316 25 206 0.0 0.0 0.00 0.00 0.00 65 1012.8
20260504194054 25 206 0.0 0.0 0.00 0.00 0.00 65 1011.2
20260504193832 25 193 0.0 0.0 0.00 0.00 0.00 64 1012.8
20260504193545 25 195 0.0 0.0 0.00 0.00 0.00 64 1011.1
20260504193329 25 186 0.0 0.0 0.00 0.00 0.00 64 1012.7
20260504193044 25 201 0.0 0.0 0.00 0.00 0.00 65 1011.3
20260504192824 25 169 0.0 0.0 0.00 0.00 0.00 66 1013.0
20260504192527 24 220 0.0 0.0 0.00 0.00 0.00 65 1011.4
20260504192320 25 216 0.0 0.0 0.00 0.00 0.00 67 1013.1
20260504192023 24 193 0.0 0.0 0.00 0.00 0.00 65 1011.7
20260504191816 25 173 0.0 0.0 0.00 0.00 0.00 66 1013.3
20260504191517 24 216 0.0 0.0 0.00 0.00 0.00 65 1011.5
20260504191314 25 224 0.0 0.0 0.00 0.00 0.00 65 1013.1
20260504191013 24 211 0.0 0.0 0.00 0.00 0.00 67 1011.5
20260504190830 25 226 0.0 0.0 0.00 0.00 0.00 67 1013.1
20260504190555 24 198 0.0 0.0 0.00 0.00 0.00 67 1011.8
20260504190325 24 198 0.0 0.0 0.00 0.00 0.00 67 1013.3
20260504190049 23 214 0.0 0.0 0.00 0.00 0.00 67 1012.0
20260504185821 24 172 0.0 0.0 0.00 0.00 0.00 67 1013.5
20260504185546 23 186 0.0 0.0 0.00 0.00 0.00 67 1012.0
20260504185319 23 211 0.0 0.0 0.00 0.00 0.00 68 1013.5
20260504185035 23 215 0.0 0.0 0.00 0.00 0.00 69 1012.0
20260504184854 23 236 0.0 0.0 0.00 0.00 0.00 69 1013.6
20260504184609 23 194 0.0 0.0 0.00 0.00 0.00 68 1012.1
20260504184330 23 226 0.0 0.0 0.00 0.00 0.00 68 1013.7
20260504184052 23 243 0.0 0.0 0.00 0.00 0.00 68 1012.3
20260504183826 23 181 0.0 0.0 0.00 0.00 0.00 68 1013.8
20260504183542 23 211 0.0 0.0 0.00 0.00 0.00 69 1012.3
20260504183342 23 208 0.0 0.0 0.00 0.00 0.00 69 1013.9
20260504183003 23 166 0.0 0.0 0.00 0.00 0.00 69 1012.3
20260504182818 23 198 0.0 0.0 0.00 0.00 0.00 70 1013.8
20260504182557 23 237 0.0 0.0 0.00 0.00 0.00 69 1012.5
20260504182314 23 211 0.0 0.0 0.00 0.00 0.00 69 1013.9
20260504182053 23 205 0.0 0.0 0.00 0.00 0.00 69 1012.5
20260504181830 23 172 0.0 0.0 0.00 0.00 0.00 71 1013.8
20260504181543 22 145 0.0 0.0 0.00 0.00 0.00 70 1012.4
20260504181325 23 209 0.0 0.0 0.00 0.00 0.00 71 1014.1
20260504181037 22 215 0.0 0.0 0.00 0.00 0.00 71 1012.7
20260504180819 22 216 0.0 0.0 0.00 0.00 0.00 71 1014.2
20260504180530 22 226 0.0 0.0 0.00 0.00 0.00 71 1012.8
20260504180317 22 210 0.0 0.0 0.00 0.00 0.00 70 1014.4
20260504180016 22 240 0.0 0.0 0.00 0.00 0.00 72 1012.8
20260504175833 22 241 0.0 0.0 0.00 0.00 0.00 72 1014.4
20260504175507 22 241 0.0 0.0 0.00 0.00 0.00 72 1012.8
20260504175344 22 229 0.0 0.0 0.00 0.00 0.00 72 1014.4
20260504175039 22 189 0.0 0.0 0.00 0.00 0.00 71 1012.9
20260504174820 22 215 0.0 29.0 0.00 0.00 0.00 72 1014.5
20260504174533 21 204 0.0 29.0 0.00 0.00 0.00 72 1013.0
20260504174317 22 186 0.0 30.6 0.00 0.00 0.00 73 1014.7
20260504174025 21 220 12.9 33.8 0.00 0.00 0.00 72 1013.2
20260504173833 21 208 19.3 33.8 0.00 0.00 0.00 73 1014.6
20260504173509 21 211 17.7 35.4 0.00 0.00 0.00 73 1013.1
20260504173329 21 226 19.3 35.4 0.00 0.00 0.00 73 1014.6
20260504173005 21 220 17.7 35.4 0.00 0.00 0.00 73 1013.1
20260504172825 21 214 20.9 35.4 0.00 0.00 0.00 73 1014.6
20260504172559 21 223 20.9 35.4 0.00 0.00 0.00 72 1013.2
20260504172322 21 197 22.5 35.4 0.00 0.00 0.00 73 1014.8
20260504172047 21 189 19.3 35.4 0.00 0.00 0.00 73 1013.3
20260504171818 21 191 22.5 35.4 0.00 0.00 0.00 73 1014.8
20260504171539 21 216 17.7 32.2 0.00 0.00 0.00 73 1013.4
20260504171314 21 207 19.3 32.2 0.00 0.00 0.00 73 1014.9
20260504171021 21 199 19.3 35.4 0.00 0.00 0.00 73 1013.5
20260504170830 21 195 19.3 37.0 0.00 0.00 0.00 73 1015.0
20260504170509 21 195 20.9 37.0 0.00 0.00 0.00 73 1013.4
20260504170326 21 185 24.1 37.0 0.00 0.00 0.00 73 1014.9
20260504170107 21 188 25.7 38.6 0.00 0.00 0.00 73 1013.5
20260504160338 20 191 27.4 45.1 0.00 0.00 0.00 73 1015.0
20260504151039 19 207 17.7 35.4 0.00 0.00 0.00 75 1014.2
20260504150826 20 206 22.5 35.4 0.00 0.00 0.00 76 1015.6
20260504150533 19 168 20.9 35.4 0.00 0.00 0.00 76 1014.1
20260504150323 19 151 24.1 35.4 0.00 0.00 0.00 75 1015.6
20260504141008 18 177 17.7 37.0 0.00 0.00 0.00 79 1014.3
20260504140818 18 204 20.9 37.0 0.00 0.00 0.00 79 1015.6
20260504140603 18 218 22.5 35.4 0.00 0.00 0.00 79 1014.2
20260504140315 18 222 20.9 35.4 0.00 0.00 0.00 79 1015.5
20260504130501 16 208 17.7 30.6 0.00 0.00 0.00 82 1014.0
20260504130320 16 179 17.7 30.6 0.00 0.00 0.00 82 1015.3
20260504110547 15 170 9.7 16.1 0.00 0.00 0.00 82 1013.8
20260504110322 15 191 8.0 16.1 0.00 0.00 0.00 82 1015.0
20260504100542 15 186 4.8 12.9 0.00 0.00 0.00 80 1014.5
20260504100332 15 201 6.4 12.9 0.00 0.00 0.00 80 1015.8
20260504081818 16 183 8.0 14.5 0.00 0.00 0.00 74 1016.1
20260504081600 16 174 6.4 16.1 0.00 0.00 0.00 74 1014.8
20260504081500 16 174 8.0 16.1 0.00 0.00 0.00 74 1014.8
20260504081314 16 190 8.0 16.1 0.00 0.00 0.00 74 1016.1
20260504081055 16 195 8.0 16.1 0.00 0.00 0.00 74 1014.8
20260504080850 16 210 9.7 16.1 0.00 0.00 0.00 74 1016.0
20260504080524 16 195 6.4 17.7 0.00 0.00 0.00 74 1014.8
20260504080325 16 195 9.7 17.7 0.00 0.00 0.00 74 1016.1
20260504070331 16 173 12.9 25.7 0.00 0.00 0.00 70 1016.8
20260504050526 16 191 6.4 9.7 0.00 0.00 0.00 66 1017.1
20260504050326 16 191 6.4 9.7 0.00 0.00 0.00 66 1018.2
20260504050123 16 191 4.8 8.0 0.00 0.00 0.00 66 1017.1
20260504045832 16 191 4.8 8.0 0.00 0.00 0.00 66 1018.3
20260504045540 16 191 3.2 8.0 0.00 0.00 0.00 66 1017.1
20260504045328 16 191 4.8 8.0 0.00 0.00 0.00 66 1018.3
20260504045034 16 191 4.8 8.0 0.00 0.00 0.00 66 1017.1
20260504044825 16 191 6.4 8.0 0.00 0.00 0.00 66 1018.2
20260504044532 16 191 4.8 8.0 0.00 0.00 0.00 66 1017.1
20260504044321 16 191 4.8 6.4 0.00 0.00 0.00 66 1018.3
20260504044016 16 191 3.2 6.4 0.00 0.00 0.00 66 1017.2
20260504043818 16 191 4.8 6.4 0.00 0.00 0.00 66 1018.4
20260504043602 16 191 3.2 6.4 0.00 0.00 0.00 66 1017.2
20260504043315 16 191 4.8 6.4 0.00 0.00 0.00 66 1018.3
20260504043103 16 191 3.2 6.4 0.00 0.00 0.00 66 1017.1
20260504042830 16 191 3.2 6.4 0.00 0.00 0.00 66 1018.4
20260504042551 16 191 3.2 6.4 0.00 0.00 0.00 66 1017.2
20260504042327 16 191 3.2 6.4 0.00 0.00 0.00 66 1018.5
20260504042044 16 191 3.2 6.4 0.00 0.00 0.00 66 1017.2
20260504041824 16 191 3.2 6.4 0.00 0.00 0.00 66 1018.5
20260504041537 16 191 3.2 6.4 0.00 0.00 0.00 65 1017.4
20260504041320 16 191 3.2 6.4 0.00 0.00 0.00 65 1018.6
20260504041033 16 191 3.2 6.4 0.00 0.00 0.00 65 1017.4
20260504040851 16 191 3.2 6.4 0.00 0.00 0.00 65 1018.6
20260504040558 16 191 3.2 6.4 0.00 0.00 0.00 65 1017.5
20260504040326 16 191 4.8 8.0 0.00 0.00 0.00 66 1018.7
20260504040051 16 191 3.2 8.0 0.00 0.00 0.00 66 1017.6
20260504035822 16 191 4.8 8.0 0.00 0.00 0.00 66 1018.8
20260504035543 16 191 4.8 8.0 0.00 0.00 0.00 66 1017.7
20260504035318 16 191 3.2 6.4 0.00 0.00 0.00 66 1018.8
20260504035037 16 191 3.2 6.4 0.00 0.00 0.00 65 1017.6
20260504034836 16 191 3.2 8.0 0.00 0.00 0.00 65 1018.7
20260504034616 16 191 3.2 8.0 0.00 0.00 0.00 65 1017.4
20260504034332 16 191 4.8 8.0 0.00 0.00 0.00 65 1018.6
20260504034054 16 191 3.2 8.0 0.00 0.00 0.00 65 1017.4
20260504033827 16 191 3.2 6.4 0.00 0.00 0.00 65 1018.5
20260504033546 16 191 3.2 6.4 0.00 0.00 0.00 65 1017.2
20260504033323 16 191 4.8 8.0 0.00 0.00 0.00 65 1018.4
20260504033050 16 191 4.8 8.0 0.00 0.00 0.00 65 1017.3
20260504032838 17 191 4.8 8.0 0.00 0.00 0.00 65 1018.5
20260504032604 16 191 4.8 9.7 0.00 0.00 0.00 65 1017.3
20260504032333 17 191 6.4 9.7 0.00 0.00 0.00 64 1018.5
20260504032035 16 178 4.8 9.7 0.00 0.00 0.00 64 1017.4
20260504031829 17 189 6.4 9.7 0.00 0.00 0.00 64 1018.5
20260504031527 16 185 4.8 11.3 0.00 0.00 0.00 64 1017.1
20260504031324 17 187 6.4 11.3 0.00 0.00 0.00 64 1018.3
20260504031012 17 158 6.4 11.3 0.00 0.00 0.00 64 1017.2
20260504030841 17 166 8.0 11.3 0.00 0.00 0.00 64 1018.3
20260504030542 17 189 6.4 11.3 0.00 0.00 0.00 64 1017.2
20260504030316 17 180 6.4 11.3 0.00 0.00 0.00 64 1018.3
20260504030034 17 184 6.4 11.3 0.00 0.00 0.00 64 1017.2
20260504025833 17 180 8.0 11.3 0.00 0.00 0.00 64 1018.5
20260504025528 17 200 4.8 9.7 0.00 0.00 0.00 64 1017.3
20260504025329 17 181 6.4 9.7 0.00 0.00 0.00 64 1018.5
20260504025025 17 181 3.2 8.0 0.00 0.00 0.00 64 1017.3
20260504024825 17 181 4.8 8.0 0.00 0.00 0.00 63 1018.4
20260504024526 17 181 3.2 8.0 0.00 0.00 0.00 63 1017.3
20260504024321 17 181 4.8 6.4 0.00 0.00 0.00 63 1018.5
20260504024005 17 181 3.2 6.4 0.00 0.00 0.00 62 1017.4
20260504023820 17 181 4.8 6.4 0.00 0.00 0.00 62 1018.5
20260504023556 17 181 3.2 6.4 0.00 0.00 0.00 62 1017.4
20260504023316 18 181 4.8 6.4 0.00 0.00 0.00 61 1018.5
20260504023050 17 181 3.2 6.4 0.00 0.00 0.00 61 1017.3
20260504022832 18 181 4.8 6.4 0.00 0.00 0.00 61 1018.5
20260504022544 17 181 3.2 6.4 0.00 0.00 0.00 61 1017.3
20260504022329 18 181 3.2 6.4 0.00 0.00 0.00 60 1018.5
20260504022037 18 181 3.2 6.4 0.00 0.00 0.00 60 1017.3
20260504021825 18 181 4.8 6.4 0.00 0.00 0.00 60 1018.4
20260504021529 18 181 3.2 6.4 0.00 0.00 0.00 60 1017.2
20260504021322 18 181 4.8 6.4 0.00 0.00 0.00 59 1018.5
20260504021020 18 181 3.2 6.4 0.00 0.00 0.00 59 1017.3
20260504020818 18 181 4.8 6.4 0.00 0.00 0.00 59 1018.5
20260504020514 18 181 3.2 6.4 0.00 0.00 0.00 59 1017.3
20260504020316 18 181 4.8 6.4 0.00 0.00 0.00 59 1018.4
20260504020104 18 181 4.8 6.4 0.00 0.00 0.00 59 1017.2
20260504015832 18 182 4.8 6.4 0.00 0.00 0.00 58 1018.4
20260504015556 18 181 3.2 6.4 0.00 0.00 0.00 58 1017.3
20260504015328 19 181 4.8 6.4 0.00 0.00 0.00 58 1018.5
20260504015051 18 181 4.8 6.4 0.00 0.00 0.00 57 1017.3
20260504014824 19 181 4.8 6.4 0.00 0.00 0.00 57 1018.4
20260504014545 19 181 3.2 4.8 0.00 0.00 0.00 56 1017.3
20260504014322 19 181 3.2 4.8 0.00 0.00 0.00 56 1018.4
20260504014037 19 181 3.2 6.4 0.00 0.00 0.00 56 1017.2
20260504013818 20 181 3.2 6.4 0.00 0.00 0.00 56 1018.3
20260504013534 19 181 3.2 6.4 0.00 0.00 0.00 55 1017.1
20260504013314 20 181 4.8 6.4 0.00 0.00 0.00 55 1018.1
20260504013036 20 181 3.2 6.4 0.00 0.00 0.00 54 1016.9
20260504012831 20 181 4.8 6.4 0.00 0.00 0.00 54 1018.0
20260504012508 20 181 3.2 6.4 0.00 0.00 0.00 54 1016.9
20260504012328 20 181 4.8 6.4 0.00 0.00 0.00 54 1018.1
20260504012105 20 181 3.2 6.4 0.00 0.00 0.00 54 1016.9
20260504011823 20 181 4.8 6.4 0.00 0.00 0.00 53 1018.0
20260504011554 20 181 3.2 6.4 0.00 0.00 0.00 53 1016.8
20260504011320 20 181 4.8 8.0 0.00 0.00 0.00 53 1018.0
20260504011047 20 181 4.8 8.0 0.00 0.00 0.00 53 1016.8
20260504010817 21 164 4.8 8.0 0.00 0.00 0.00 53 1017.9
20260504010540 20 170 4.8 9.7 0.00 0.00 0.00 52 1016.6
20260504010332 21 156 6.4 9.7 0.00 0.00 0.00 52 1017.8
20260504010032 21 152 6.4 9.7 0.00 0.00 0.00 52 1016.7
20260504005828 21 173 6.4 8.0 0.00 0.00 0.00 52 1017.9
20260504005528 21 173 3.2 6.4 0.00 0.00 0.00 52 1016.8
20260504005325 21 174 4.8 6.4 0.00 0.00 0.00 51 1018.0
20260504005022 21 168 3.2 8.0 0.00 0.00 0.00 51 1016.8
20260504004821 21 168 4.8 8.0 0.00 0.00 0.00 51 1018.0
20260504004515 21 168 6.4 8.0 0.00 0.00 0.00 50 1016.8
20260504004315 22 164 4.8 8.0 0.00 0.00 0.00 50 1018.0
20260504004058 21 164 0.0 0.0 0.00 0.00 0.00 50 1016.8
20260504003827 22 164 0.0 0.0 0.00 0.00 0.00 49 1018.0
20260504003531 22 186 0.0 0.0 0.00 0.00 0.00 49 1017.0
20260504003324 22 173 0.0 0.0 0.00 0.00 0.00 49 1018.1
20260504003038 22 193 0.0 0.0 0.00 0.00 0.00 48 1017.0
20260504002821 22 174 0.0 0.0 0.00 0.00 0.00 48 1018.2
20260504002522 22 156 0.0 0.0 0.00 0.00 0.00 48 1016.9
20260504002339 22 180 0.0 0.0 0.00 0.00 0.00 49 1018.1
20260504002101 22 166 0.0 0.0 0.00 0.00 0.00 48 1017.0
20260504001830 22 210 0.0 0.0 0.00 0.00 0.00 48 1018.1
20260504001552 22 176 0.0 0.0 0.00 0.00 0.00 48 1016.9
20260504001327 22 164 0.0 0.0 0.00 0.00 0.00 48 1018.0
20260504001047 22 164 0.0 0.0 0.00 0.00 0.00 46 1016.9
20260504000824 23 172 0.0 0.0 0.00 0.00 0.00 46 1018.2
20260504000540 22 204 0.0 0.0 0.00 0.00 0.00 45 1017.1
20260504000320 23 194 0.0 0.0 0.00 0.00 0.00 44 1018.2
20260504000038 22 189 0.0 0.0 0.00 0.00 0.00 45 1017.2
20260503235816 23 172 0.0 0.0 0.00 0.00 0.00 45 1018.2
20260503235518 22 187 0.0 0.0 0.00 0.00 0.00 44 1017.2
20260503235351 23 171 0.0 0.0 0.00 0.00 0.00 44 1018.3
20260503235050 22 183 0.0 0.0 0.00 0.00 0.00 44 1017.3
20260503234847 23 192 0.0 0.0 0.00 0.00 0.00 44 1018.4
20260503234527 23 179 0.0 0.0 0.00 0.00 0.00 43 1017.3
20260503234323 23 195 0.0 0.0 0.00 0.00 0.00 43 1018.5
20260503234004 23 212 0.0 0.0 0.00 0.00 0.00 43 1017.4
20260503233819 23 187 0.0 0.0 0.00 0.00 0.00 43 1018.6
20260503233558 23 186 0.0 0.0 0.00 0.00 0.00 42 1017.4
20260503233315 23 169 0.0 0.0 0.00 0.00 0.00 42 1018.6
20260503233052 23 162 0.0 0.0 0.00 0.00 0.00 41 1017.5
20260503232832 23 182 0.0 0.0 0.00 0.00 0.00 41 1018.6
20260503232549 23 166 0.0 0.0 0.00 0.00 0.00 40 1017.4
20260503232330 23 154 0.0 0.0 0.00 0.00 0.00 40 1018.6
20260503232038 23 179 0.0 0.0 0.00 0.00 0.00 39 1017.4
20260503231824 23 190 0.0 0.0 0.00 0.00 0.00 38 1018.7
20260503231530 23 177 0.0 0.0 0.00 0.00 0.00 38 1017.5
20260503231322 23 181 0.0 0.0 0.00 0.00 0.00 38 1018.6
20260503231026 23 172 0.0 0.0 0.00 0.00 0.00 38 1017.6
20260503230817 23 201 0.0 0.0 0.00 0.00 0.00 38 1018.7
20260503230518 23 154 0.0 0.0 0.00 0.00 0.00 37 1017.5
20260503230333 24 149 0.0 0.0 0.00 0.00 0.00 37 1018.7
20260503230106 23 166 0.0 0.0 0.00 0.00 0.00 37 1017.5
20260503225825 24 181 0.0 0.0 0.00 0.00 0.00 36 1018.7
20260503225555 24 198 0.0 0.0 0.00 0.00 0.00 36 1017.5
20260503225323 24 174 0.0 0.0 0.00 0.00 0.00 38 1018.7
20260503225046 24 204 0.0 0.0 0.00 0.00 0.00 37 1017.4
20260503224840 24 158 0.0 0.0 0.00 0.00 0.00 38 1018.6
20260503224525 24 170 0.0 0.0 0.00 0.00 0.00 37 1017.4
20260503224314 24 129 0.0 0.0 0.00 0.00 0.00 37 1018.6
20260503224058 24 168 0.0 0.0 0.00 0.00 0.00 37 1017.6
20260503223831 24 183 0.0 0.0 0.00 0.00 0.00 36 1018.7
20260503223552 24 143 0.0 0.0 0.00 0.00 0.00 36 1017.6
20260503223325 24 151 0.0 0.0 0.00 0.00 0.00 36 1018.7
20260503223020 24 154 0.0 0.0 0.00 0.00 0.00 36 1017.6
20260503222820 24 187 0.0 0.0 0.00 0.00 0.00 36 1018.8
20260503222514 24 169 0.0 0.0 0.00 0.00 0.00 37 1017.7
20260503222316 24 160 0.0 0.0 0.00 0.00 0.00 36 1019.0
20260503222057 24 168 0.0 0.0 0.00 0.00 0.00 36 1017.8
20260503221831 24 166 0.0 0.0 0.00 0.00 0.00 36 1019.0
20260503221554 24 158 0.0 0.0 0.00 0.00 0.00 38 1017.8
20260503221327 24 181 0.0 0.0 0.00 0.00 0.00 37 1018.9
20260503221046 24 197 0.0 0.0 0.00 0.00 0.00 36 1017.7
20260503220842 24 188 0.0 0.0 0.00 0.00 0.00 37 1019.0
20260503220514 24 203 0.0 0.0 0.00 0.00 0.00 37 1018.0
20260503220316 24 170 0.0 0.0 0.00 0.00 0.00 38 1019.1
20260503220100 24 160 0.0 0.0 0.00 0.00 0.00 36 1018.0
20260503215828 24 162 0.0 0.0 0.00 0.00 0.00 37 1019.1
20260503215549 24 190 0.0 0.0 0.00 0.00 0.00 38 1018.0